Powrót do katalogu

CZ-4 DEB

AktywnySSO
NORAD 20904·DEBRIS·🇨🇳 China

Wystrzelony Sep 3, 1990 z Taiyuan Satellite Launch Center

Loading…

Następne Przeloty (najbliższe 24 godziny)

TLE

ŚwieżeSource: Space-Track

Epoka: Sep 13, 2026, 23:50 UTC

1 20904U 90081BQ  26256.99369280  .00003533  00000-0  72216-3 0  9995
2 20904  98.4105 271.2806 0016518 169.2241 212.4052 14.61422614871380

Śledź CZ-4 DEB w czasie rzeczywistym z AllMySat

Download on the App Store